TimeCDT,TemperatureF,Dew PointF,Humidity,Sea Level PressureIn,VisibilityMPH,Wind Direction,Wind SpeedMPH,Gust SpeedMPH,PrecipitationIn,Events,Conditions,WindDirDegrees,DateUTC
12:15 AM,62.8,44.1,50,29.96,10.0,South,10.4,17.3,N/A,,Clear,190,2013-10-09 05:15:00
12:35 AM,63.0,44.2,50,29.97,10.0,South,10.4,-,N/A,,Clear,190,2013-10-09 05:35:00
12:55 AM,62.4,44.6,52,29.97,10.0,South,9.2,-,N/A,,Clear,190,2013-10-09 05:55:00
1:15 AM,61.7,44.8,54,29.98,10.0,South,8.1,-,N/A,,Clear,190,2013-10-09 06:15:00
1:35 AM,60.8,45.0,56,29.98,10.0,South,9.2,-,N/A,,Clear,180,2013-10-09 06:35:00
1:55 AM,60.3,45.1,57,29.99,10.0,South,8.1,-,N/A,,Clear,180,2013-10-09 06:55:00
2:15 AM,59.5,45.1,59,30.00,10.0,South,6.9,-,N/A,,Clear,170,2013-10-09 07:15:00
2:35 AM,59.0,45.3,60,30.00,10.0,South,8.1,-,N/A,,Clear,170,2013-10-09 07:35:00
2:55 AM,59.0,45.5,61,30.00,10.0,South,6.9,-,N/A,,Clear,180,2013-10-09 07:55:00
3:15 AM,58.1,45.5,63,30.00,10.0,South,6.9,-,N/A,,Clear,170,2013-10-09 08:15:00
3:35 AM,57.6,45.5,64,30.00,10.0,South,8.1,-,N/A,,Clear,180,2013-10-09 08:35:00
3:55 AM,57.2,45.7,65,30.00,10.0,South,6.9,-,N/A,,Clear,170,2013-10-09 08:55:00
4:15 AM,57.2,45.9,66,30.01,10.0,South,8.1,-,N/A,,Clear,170,2013-10-09 09:15:00
4:35 AM,56.3,45.9,68,30.01,10.0,South,6.9,-,N/A,,Clear,170,2013-10-09 09:35:00
4:55 AM,57.2,46.4,67,30.02,10.0,South,8.1,-,N/A,,Clear,180,2013-10-09 09:55:00
5:15 AM,57.0,46.4,68,30.02,10.0,South,5.8,-,N/A,,Clear,170,2013-10-09 10:15:00
5:35 AM,55.9,46.4,70,30.02,10.0,South,8.1,-,N/A,,Clear,170,2013-10-09 10:35:00
5:55 AM,56.1,46.6,70,30.02,10.0,South,6.9,-,N/A,,Clear,170,2013-10-09 10:55:00
6:15 AM,56.3,46.9,71,30.02,10.0,South,8.1,-,N/A,,Clear,170,2013-10-09 11:15:00
6:35 AM,56.3,46.9,71,30.02,10.0,South,8.1,-,N/A,,Clear,180,2013-10-09 11:35:00
6:55 AM,55.6,46.9,73,30.02,10.0,South,5.8,-,N/A,,Clear,170,2013-10-09 11:55:00
7:15 AM,55.2,47.1,74,30.02,10.0,South,6.9,-,N/A,,Clear,180,2013-10-09 12:15:00
7:35 AM,55.4,47.3,74,30.02,10.0,South,6.9,-,N/A,,Clear,180,2013-10-09 12:35:00
7:55 AM,55.9,47.3,73,30.03,10.0,South,8.1,-,N/A,,Clear,180,2013-10-09 12:55:00
8:15 AM,56.7,47.7,72,30.03,10.0,South,8.1,-,N/A,,Clear,180,2013-10-09 13:15:00
8:35 AM,58.1,47.8,69,30.03,10.0,South,10.4,-,N/A,,Clear,180,2013-10-09 13:35:00
8:55 AM,58.3,48.0,69,30.04,10.0,South,9.2,-,N/A,,Clear,190,2013-10-09 13:55:00
9:15 AM,60.8,48.2,63,30.05,10.0,South,12.7,-,N/A,,Clear,190,2013-10-09 14:15:00
9:35 AM,62.1,48.2,60,30.05,10.0,South,13.8,18.4,N/A,,Clear,190,2013-10-09 14:35:00
9:55 AM,62.6,48.2,59,30.06,10.0,SSW,10.4,17.3,N/A,,Clear,200,2013-10-09 14:55:00
10:15 AM,63.9,48.4,57,30.06,10.0,SSW,10.4,19.6,N/A,,Clear,200,2013-10-09 15:15:00
10:35 AM,63.1,48.0,58,30.06,10.0,SSW,13.8,19.6,N/A,,Clear,200,2013-10-09 15:35:00
11:15 AM,66.6,48.7,53,30.07,10.0,SSW,12.7,18.4,N/A,,Clear,200,2013-10-09 16:15:00
11:35 AM,68.0,48.9,50,30.07,10.0,SSW,15.0,18.4,N/A,,Clear,200,2013-10-09 16:35:00
11:55 AM,68.5,48.2,48,30.07,10.0,South,15.0,21.9,N/A,,Clear,190,2013-10-09 16:55:00
12:15 PM,69.8,48.4,46,30.06,10.0,South,13.8,20.7,N/A,,Clear,190,2013-10-09 17:15:00
12:35 PM,70.3,48.4,46,30.06,10.0,SSW,15.0,21.9,N/A,,Clear,200,2013-10-09 17:35:00
12:55 PM,70.7,48.9,46,30.06,10.0,South,12.7,20.7,N/A,,Clear,180,2013-10-09 17:55:00
1:15 PM,71.8,48.7,44,30.05,10.0,South,12.7,-,N/A,,Clear,180,2013-10-09 18:15:00
1:35 PM,72.5,48.0,42,30.05,10.0,South,12.7,19.6,N/A,,Clear,170,2013-10-09 18:35:00
1:55 PM,72.9,47.5,40,30.04,10.0,South,13.8,-,N/A,,Clear,180,2013-10-09 18:55:00
2:15 PM,73.4,46.8,39,30.04,10.0,South,15.0,20.7,N/A,,Clear,170,2013-10-09 19:15:00
2:35 PM,73.6,46.0,37,30.04,10.0,South,13.8,18.4,N/A,,Clear,180,2013-10-09 19:35:00
2:55 PM,74.5,45.5,36,30.04,10.0,SSW,15.0,18.4,N/A,,Clear,200,2013-10-09 19:55:00
3:15 PM,74.3,45.1,35,30.04,10.0,South,13.8,18.4,N/A,,Clear,180,2013-10-09 20:15:00
3:55 PM,74.5,45.0,35,30.04,10.0,South,11.5,16.1,N/A,,Clear,190,2013-10-09 20:55:00
4:15 PM,74.3,44.8,35,30.04,10.0,SSW,10.4,-,N/A,,Clear,200,2013-10-09 21:15:00
4:35 PM,73.8,46.0,37,30.04,10.0,South,6.9,-,N/A,,Clear,190,2013-10-09 21:35:00
4:55 PM,73.0,45.5,37,30.04,10.0,South,13.8,18.4,N/A,,Clear,190,2013-10-09 21:55:00
5:15 PM,72.5,46.2,39,30.04,10.0,South,11.5,17.3,N/A,,Clear,180,2013-10-09 22:15:00
5:35 PM,71.6,46.9,41,30.04,10.0,South,11.5,17.3,N/A,,Clear,170,2013-10-09 22:35:00
5:55 PM,70.5,47.3,44,30.04,10.0,South,10.4,16.1,N/A,,Clear,170,2013-10-09 22:55:00
6:15 PM,68.2,47.3,47,30.04,10.0,SSE,8.1,-,N/A,,Clear,160,2013-10-09 23:15:00
6:55 PM,65.3,48.4,54,30.04,10.0,SSE,6.9,-,N/A,,Clear,150,2013-10-09 23:55:00
7:15 PM,63.5,48.9,59,30.04,10.0,SE,5.8,-,N/A,,Clear,140,2013-10-10 00:15:00
7:35 PM,63.0,48.9,60,30.04,10.0,SE,5.8,-,N/A,,Clear,140,2013-10-10 00:35:00
7:55 PM,62.2,49.1,62,30.04,10.0,SSE,6.9,-,N/A,,Clear,150,2013-10-10 00:55:00
8:15 PM,62.2,49.1,62,30.04,10.0,SSE,6.9,-,N/A,,Clear,150,2013-10-10 01:15:00
8:35 PM,61.9,48.9,62,30.04,10.0,SSE,5.8,-,N/A,,Clear,150,2013-10-10 01:35:00
8:55 PM,61.0,48.6,64,30.04,10.0,SSE,5.8,-,N/A,,Clear,150,2013-10-10 01:55:00
9:15 PM,59.5,48.4,67,30.05,10.0,SE,4.6,-,N/A,,Clear,140,2013-10-10 02:15:00
9:35 PM,57.6,48.4,71,30.05,10.0,SE,4.6,-,N/A,,Clear,140,2013-10-10 02:35:00
9:55 PM,56.5,48.2,74,30.05,10.0,SSE,3.5,-,N/A,,Clear,150,2013-10-10 02:55:00
10:15 PM,56.7,48.2,73,30.06,10.0,SE,3.5,-,N/A,,Clear,140,2013-10-10 03:15:00
10:35 PM,55.4,48.2,77,30.06,10.0,SE,4.6,-,N/A,,Clear,140,2013-10-10 03:35:00
10:55 PM,55.4,47.7,75,30.06,10.0,SE,3.5,-,N/A,,Clear,140,2013-10-10 03:55:00
11:15 PM,52.9,47.3,81,30.07,10.0,ESE,3.5,-,N/A,,Clear,120,2013-10-10 04:15:00
11:55 PM,54.1,46.8,76,30.07,10.0,Calm,Calm,-,N/A,,Clear,0,2013-10-10 04:55:00